Météo par heure à Kistelek

Ce jour, 5 Mars, Vendredi

Heure Température Précipitation Vent Pression Humidité
00:00 +8°C° 0 mm 3 m/s 752 mmHg 66%
01:00 +8°C° 0 mm 3 m/s 752 mmHg 68%
02:00 +7°C° 0 mm 3 m/s 751 mmHg 68%
03:00 +6°C° 0 mm 4 m/s 751 mmHg 68%
04:00 +6°C° 0 mm 4 m/s 751 mmHg 68%
05:00 +6°C° 0 mm 4 m/s 751 mmHg 70%
06:00 +5°C° 0 mm 4 m/s 751 mmHg 72%
07:00 +5°C° 0 mm 3 m/s 751 mmHg 75%
08:00 +6°C° 0 mm 4 m/s 751 mmHg 72%
09:00 +8°C° 0 mm 4 m/s 751 mmHg 68%
10:00 +9°C° 0 mm 5 m/s 751 mmHg 65%
11:00 +10°C° 0 mm 5 m/s 751 mmHg 64%
12:00 +11°C° 0 mm 4 m/s 751 mmHg 64%
13:00 +11°C° 0 mm 3 m/s 752 mmHg 68%
14:00 +10°C° 0.5 mm 4 m/s 752 mmHg 68%
15:00 +9°C° 0.5 mm 5 m/s 752 mmHg 68%
16:00 +8°C° 0.5 mm 6 m/s 753 mmHg 67%
17:00 +5°C° 0 mm 6 m/s 754 mmHg 73%
18:00 +4°C° 0 mm 6 m/s 754 mmHg 78%
19:00 +2°C° 0 mm 6 m/s 755 mmHg 83%
20:00 +2°C° 0 mm 6 m/s 756 mmHg 77%
21:00 +2°C° 0 mm 5 m/s 757 mmHg 72%
22:00 +2°C° 0 mm 5 m/s 758 mmHg 67%
23:00 +1°C° 0 mm 5 m/s 759 mmHg 64%

Demain, 6 Mars, Samedi

Heure Température Précipitation Vent Pression Humidité
00:00 +1°C° 0 mm 5 m/s 760 mmHg 61%
01:00 0°C° 0 mm 4 m/s 761 mmHg 58%
02:00 0°C° 0 mm 4 m/s 761 mmHg 58%
03:00 -1°C° 0 mm 4 m/s 762 mmHg 59%
04:00 0°C° 0 mm 3 m/s 762 mmHg 59%
05:00 -1°C° 0 mm 3 m/s 763 mmHg 66%
06:00 -1°C° 0 mm 3 m/s 763 mmHg 73%
07:00 -1°C° 0 mm 3 m/s 764 mmHg 79%
08:00 +1°C° 0 mm 3 m/s 764 mmHg 70%
09:00 +2°C° 0 mm 3 m/s 765 mmHg 60%
10:00 +3°C° 0 mm 3 m/s 765 mmHg 50%
11:00 +4°C° 0 mm 3 m/s 765 mmHg 45%
12:00 +5°C° 0 mm 2 m/s 765 mmHg 40%
13:00 +6°C° 0 mm 2 m/s 765 mmHg 35%
14:00 +6°C° 0 mm 2 m/s 765 mmHg 34%
15:00 +6°C° 0 mm 2 m/s 764 mmHg 34%
16:00 +6°C° 0 mm 2 m/s 764 mmHg 33%
17:00 +6°C° 0 mm 1 m/s 764 mmHg 37%
18:00 +5°C° 0 mm 1 m/s 764 mmHg 41%
19:00 +4°C° 0 mm 1 m/s 764 mmHg 44%
20:00 +3°C° 0 mm 1 m/s 764 mmHg 45%
21:00 +3°C° 0 mm 1 m/s 765 mmHg 46%
22:00 +3°C° 0 mm 1 m/s 765 mmHg 47%
23:00 +2°C° 0 mm 1 m/s 764 mmHg 49%

Après-demain, 7 Mars, Dimanche

Heure Température Précipitation Vent Pression Humidité
00:00 +2°C° 0 mm 1 m/s 764 mmHg 52%
01:00 -1°C° 0 mm 2 m/s 764 mmHg 54%
02:00 -1°C° 0 mm 2 m/s 764 mmHg 56%
03:00 -1°C° 0 mm 2 m/s 764 mmHg 58%
04:00 -1°C° 0 mm 2 m/s 763 mmHg 60%
05:00 -1°C° 0 mm 2 m/s 763 mmHg 60%
06:00 -1°C° 0 mm 2 m/s 763 mmHg 60%
07:00 -1°C° 0 mm 2 m/s 763 mmHg 60%
08:00 +2°C° 0 mm 2 m/s 763 mmHg 53%
09:00 +3°C° 0 mm 3 m/s 762 mmHg 47%
10:00 +4°C° 0 mm 3 m/s 762 mmHg 40%
11:00 +5°C° 0 mm 3 m/s 762 mmHg 38%
12:00 +7°C° 0 mm 3 m/s 761 mmHg 36%
13:00 +7°C° 0 mm 3 m/s 761 mmHg 34%
14:00 +7°C° 0 mm 3 m/s 760 mmHg 35%
15:00 +8°C° 0 mm 3 m/s 759 mmHg 36%
16:00 +8°C° 0 mm 2 m/s 758 mmHg 36%
17:00 +6°C° 0 mm 2 m/s 758 mmHg 40%
18:00 +5°C° 0 mm 2 m/s 757 mmHg 45%
19:00 +4°C° 0 mm 2 m/s 757 mmHg 49%
20:00 +3°C° 0 mm 2 m/s 757 mmHg 50%
21:00 +3°C° 0 mm 2 m/s 757 mmHg 52%
22:00 +2°C° 0 mm 2 m/s 756 mmHg 53%
23:00 +2°C° 0 mm 2 m/s 756 mmHg 54%

8 Mars, Lundi

Heure Température Précipitation Vent Pression Humidité
00:00 +1°C° 0 mm 2 m/s 756 mmHg 55%
01:00 +1°C° 0 mm 2 m/s 756 mmHg 56%
02:00 +1°C° 0 mm 2 m/s 755 mmHg 56%
03:00 +1°C° 0 mm 2 m/s 755 mmHg 56%
04:00 +1°C° 0 mm 2 m/s 754 mmHg 57%
05:00 +1°C° 0 mm 2 m/s 755 mmHg 57%
06:00 +1°C° 0 mm 2 m/s 755 mmHg 58%
07:00 +1°C° 0 mm 2 m/s 755 mmHg 58%
08:00 +3°C° 0 mm 2 m/s 755 mmHg 53%
09:00 +5°C° 0 mm 2 m/s 755 mmHg 48%
10:00 +7°C° 0 mm 2 m/s 755 mmHg 43%
11:00 +8°C° 0 mm 3 m/s 755 mmHg 41%
12:00 +9°C° 0 mm 3 m/s 755 mmHg 38%
13:00 +10°C° 0 mm 4 m/s 755 mmHg 36%
14:00 +10°C° 0 mm 4 m/s 755 mmHg 38%
15:00 +8°C° 0 mm 4 m/s 754 mmHg 40%
16:00 +8°C° 0 mm 4 m/s 754 mmHg 41%
17:00 +6°C° 0 mm 4 m/s 754 mmHg 47%
18:00 +5°C° 0 mm 3 m/s 755 mmHg 52%
19:00 +5°C° 0 mm 2 m/s 755 mmHg 58%
20:00 +4°C° 0 mm 2 m/s 755 mmHg 61%
21:00 +3°C° 0 mm 2 m/s 756 mmHg 64%
22:00 +3°C° 0 mm 2 m/s 756 mmHg 67%
23:00 +2°C° 0 mm 2 m/s 756 mmHg 70%

9 Mars, Mardi

Heure Température Précipitation Vent Pression Humidité
00:00 +1°C° 0 mm 3 m/s 756 mmHg 72%
01:00 +1°C° 0 mm 3 m/s 756 mmHg 75%
02:00 0°C° 0 mm 3 m/s 756 mmHg 75%
03:00 -1°C° 0 mm 3 m/s 756 mmHg 74%
04:00 -1°C° 0 mm 3 m/s 756 mmHg 74%
05:00 -1°C° 0 mm 3 m/s 757 mmHg 70%
06:00 -1°C° 0 mm 3 m/s 757 mmHg 67%
07:00 -1°C° 0 mm 3 m/s 757 mmHg 63%
08:00 +1°C° 0 mm 3 m/s 757 mmHg 57%
09:00 +2°C° 0 mm 3 m/s 757 mmHg 52%
10:00 +3°C° 0 mm 4 m/s 758 mmHg 46%
11:00 +4°C° 0 mm 4 m/s 758 mmHg 45%
12:00 +5°C° 0 mm 3 m/s 758 mmHg 43%
13:00 +7°C° 0 mm 3 m/s 758 mmHg 41%
14:00 +7°C° 0 mm 3 m/s 757 mmHg 43%
15:00 +5°C° 0 mm 3 m/s 757 mmHg 44%
16:00 +5°C° 0 mm 3 m/s 757 mmHg 45%
17:00 +4°C° 0 mm 3 m/s 757 mmHg 49%
18:00 +4°C° 0 mm 2 m/s 758 mmHg 53%
19:00 +3°C° 0 mm 2 m/s 758 mmHg 57%
20:00 +3°C° 0 mm 2 m/s 759 mmHg 58%
21:00 +3°C° 0 mm 1 m/s 759 mmHg 59%
22:00 +3°C° 0 mm 1 m/s 759 mmHg 60%
23:00 +2°C° 0 mm 1 m/s 759 mmHg 61%

10 Mars, Mercredi

Heure Température Précipitation Vent Pression Humidité
00:00 +2°C° 0 mm 1 m/s 760 mmHg 62%
01:00 +1°C° 0 mm 0 m/s 760 mmHg 63%
02:00 +2°C° 0 mm 1 m/s 760 mmHg 64%
03:00 +1°C° 0 mm 1 m/s 760 mmHg 65%
04:00 +1°C° 0 mm 1 m/s 760 mmHg 66%
05:00 +2°C° 0 mm 1 m/s 760 mmHg 66%
06:00 +2°C° 0 mm 1 m/s 760 mmHg 66%
07:00 +2°C° 0 mm 1 m/s 760 mmHg 66%
08:00 +3°C° 0 mm 2 m/s 760 mmHg 60%
09:00 +4°C° 0 mm 2 m/s 760 mmHg 55%
10:00 +5°C° 0 mm 3 m/s 761 mmHg 49%
11:00 +7°C° 0 mm 3 m/s 760 mmHg 46%
12:00 +8°C° 0 mm 3 m/s 760 mmHg 43%
13:00 +9°C° 0 mm 3 m/s 759 mmHg 40%
14:00 +9°C° 0 mm 3 m/s 759 mmHg 41%
15:00 +9°C° 0 mm 3 m/s 758 mmHg 41%
16:00 +9°C° 0 mm 3 m/s 758 mmHg 42%
17:00 +8°C° 0 mm 3 m/s 757 mmHg 46%
18:00 +7°C° 0 mm 3 m/s 757 mmHg 51%
19:00 +4°C° 0 mm 3 m/s 757 mmHg 55%
20:00 +4°C° 0 mm 3 m/s 757 mmHg 56%
21:00 +4°C° 0 mm 3 m/s 757 mmHg 57%
22:00 +3°C° 0 mm 3 m/s 757 mmHg 58%
23:00 +3°C° 0 mm 4 m/s 757 mmHg 58%
Voir plus

Nous avons besoin de votre consentement

Meteoprog et ses fournisseurs de services peuvent stocker et accéder à des données personnelles telles que des cookies, des identifiants d'appareils ou d'autres technologies similaires sur votre appareil et traiter ces données pour personnaliser le contenu et les publicités, ainsi que pour fournir des fonctionnalités de médias sociaux et analyser le trafic.

  • Stocker et/ou accéder à des informations sur votre appareil

    Des cookies, des identifiants d'appareils ou d'autres informations peuvent être stockés ou accessibles sur votre appareil aux fins indiquées ci-dessus.

  • Annonces et contenus personnalisés, mesure des annonces et des contenus, connaissance de l'audience et développement de produits

    Les annonces et le contenu peuvent être personnalisés en fonction d'un profil. D'autres données peuvent être ajoutées pour mieux personnaliser les annonces et le contenu. Les performances des publicités et du contenu peuvent être mesurées. Il est possible d'obtenir des informations sur le public qui a vu les publicités et le contenu. Ces données peuvent être utilisées pour développer ou améliorer l'expérience de l'utilisateur, les systèmes et les logiciels.

En cliquant sur "J'accepte", vous autorisez l'utilisation de cookies, des identifiants d'appareils, des balises web ou d'autres technologies similaires. Vos paramètres peuvent être modifiés dans le navigateur de votre appareil.

Dans certains cas, des intérêts légitimes peuvent être invoqués plutôt qu'un consentement. Vous pouvez en savoir plus à ce sujet dans notre Politique de confidentialité et de cookies.